Weather History for KTRM - November, 2012

Change the Weather History Date:

Thursday, November 1, 2012

  Actual Average Record
Temperature  
Mean Temperature 67 °F 67 °F  
Max Temperature 85 °F 85 °F 98 °F (1962)
Min Temperature 48 °F 49 °F 34 °F (1991)
Degree Days  
Heating Degree Days 0 1  
Month to date heating degree days 0 1  
Since 1 July heating degree days 0 12  
Cooling Degree Days 2 3  
Month to date cooling degree days 2 3  
Year to date cooling degree days 4231 3656  
Growing Degree Days 17 (Base 50)    
Moisture  
Dew Point 42 °F    
Average Humidity 43    
Maximum Humidity 68    
Minimum Humidity 17    
Precipitation  
Precipitation 0.00 in 0.01 in 0.34 in (1987)
Month to date precipitation 0.00 0.01  
Year to date precipitation 2.40 2.63  
Since 1 July precipitation 2.04 0.81  
Snow  
Snow 0.00 in - - ()
Month to date snowfall 0.0  
Year to date snowfall 0.0  
Since 1 July snowfall 0.0  
Snow Depth 0.00 in    
Sea Level Pressure  
Sea Level Pressure 29.85 in    
Wind  
Wind Speed 3 mph (North)    
Max Wind Speed 7 mph    
Max Gust Speed 10 mph    
Visibility 9 miles    
Events      
T = Trace of Precipitation, MM = Missing Value Source: NWS Daily Summary

Daily Weather History Graph

Daily Weather History Graph

Search for Another Location

Airport or City:

Trip Planner

Search our weather history database for the weather conditions in past years. The results will help you decide how hot, cold, wet, or windy it might be!

Date:

Astronomy

Nov. 01, 2012 Rise Set
Actual Time 7:04 AM PDT 5:51 PM PDT
Civil Twilight 6:38 AM PDT 6:17 PM PDT
Nautical Twilight 6:08 AM PDT 6:47 PM PDT
Astronomical Twilight 5:39 AM PDT 7:16 PM PDT
Moon 7:58 PM PDT (11/1) 9:34 AM PDT (11/1)
Length of Visible Light 11h 39m
Length of Day
10h 47m
Waning Gibbous, 92% of the Moon is Illuminated
Nov 1
Waning Gibbous
Nov 6
Last Quarter
Nov 13
New
Nov 20
First Quarter
Nov 28
Full

Hourly Weather History & Observations

Time (PDT) Temp. Dew Point Humidity Pressure Visibility Wind Dir Wind Speed Gust Speed Precip Events Conditions
12:52 AM 57.0 °F 41.0 °F 55% 29.88 in 10.0 mi Calm Calm - N/A   Clear
1:52 AM 55.0 °F 42.1 °F 62% 29.87 in 9.0 mi North 5.8 mph - N/A   Clear
2:52 AM 54.0 °F 42.1 °F 64% 29.87 in 9.0 mi North 4.6 mph - N/A   Clear
3:52 AM 52.0 °F 41.0 °F 66% 29.86 in 8.0 mi NW 3.5 mph - N/A   Clear
4:52 AM 51.1 °F 39.9 °F 66% 29.86 in 9.0 mi North 3.5 mph - N/A   Clear
5:52 AM 50.0 °F 39.9 °F 68% 29.86 in 7.0 mi North 3.5 mph - N/A   Clear
6:52 AM 51.1 °F 41.0 °F 68% 29.88 in 10.0 mi WSW 5.8 mph - N/A   Clear
7:52 AM 54.0 °F 43.0 °F 66% 29.90 in 5.0 mi Calm Calm - N/A   Haze
8:52 AM 64.9 °F 45.0 °F 48% 29.91 in 10.0 mi Calm Calm - N/A   Clear
9:52 AM 73.0 °F 44.1 °F 35% 29.91 in 10.0 mi Calm Calm - N/A   Clear
10:52 AM 77.0 °F 42.1 °F 29% 29.91 in 10.0 mi SE 3.5 mph - N/A   Clear
11:52 AM 80.1 °F 42.1 °F 26% 29.89 in 10.0 mi Calm Calm - N/A   Clear
12:52 PM 81.0 °F 42.1 °F 25% 29.86 in 10.0 mi Variable 4.6 mph - N/A   Clear
1:52 PM 82.9 °F 39.9 °F 22% 29.83 in 10.0 mi ESE 5.8 mph - N/A   Clear
2:52 PM 84.0 °F 37.9 °F 19% 29.82 in 10.0 mi ESE 3.5 mph - N/A   Clear
3:52 PM 84.0 °F 35.1 °F 17% 29.81 in 10.0 mi ESE 5.8 mph - N/A   Clear
4:52 PM 82.0 °F 37.9 °F 21% 29.81 in 10.0 mi SSE 4.6 mph - N/A   Clear
5:52 PM 73.0 °F 45.0 °F 37% 29.81 in 10.0 mi Calm Calm - N/A   Clear
6:52 PM 66.9 °F 45.0 °F 45% 29.81 in 10.0 mi Calm Calm - N/A   Clear
7:52 PM 68.0 °F 46.0 °F 45% 29.83 in 10.0 mi NW 5.8 mph - N/A   Clear
8:52 PM 73.9 °F 42.1 °F 32% 29.83 in 9.0 mi NNW 6.9 mph - N/A   Clear
9:52 PM 73.9 °F 43.0 °F 33% 29.83 in 9.0 mi NNW 10.4 mph - N/A   Clear
10:52 PM 73.0 °F 46.0 °F 38% 29.83 in 8.0 mi NNW 12.7 mph - N/A   Clear
11:08 PM 71.6 °F 46.4 °F 41% 29.83 in 6.0 mi NNW 11.5 mph - N/A   Haze
11:52 PM 70.0 °F 46.9 °F 44% 29.83 in 8.0 mi NW 8.1 mph - N/A   Clear